sat.trackr.live / text

‹ back to catalog

STARLINK-36219

NORAD 67125 · 2025-299Z

PAYLOAD ACTIVE UNKNOWN

§ Identity

Operator
Country
US
Launch date
2025-12-15
Launch site
AFETR
Launch vehicle
Mass (kg)
RCS (m²)

Purposes: comms

External: N2YO · Heavens-Above · Gunter

§ Orbital elements

Epoch: 2026-05-25T04:10:35.662368Z

Period
94.27 min
Inclination
43.0015°
Eccentricity
0.0000937
Mean motion
15.27588075 rev/d
Perigee alt
482.4 km
Apogee alt
483.7 km
Semi-major
6,861.2 km
B*
6.1445e-4
RAAN
97.0329°
Arg perigee
267.8771°
Mean anomaly
92.1974°
Rev number
2,481

§ Raw data

STARLINK-362191 67125U 25299Z   26145.17402387  .00016689  00000+0  61445-3 0  99902 67125  43.0015  97.0329 0000937 267.8771  92.1974 15.27588075 24818

JSON: /api/v1/satellites/67125 · /tle

For live sub-satellite position, see the globe view (requires WebGL).

§ Visibility from observer

Set your observer location to see the next 7 days of passes ≥ 10°. The values pass through the URL so the page stays shareable.

No JS? Fill the form by hand. The geolocation button needs JavaScript.